Location: Unspecified
(41.9031°N, 12.4386°E)
Time: 06:56:27
(UTC+01:00)

ISS - Pass Details

Date: 07 December 2019
Orbit: 411 x 421 km, 51.6° (Epoch: 15 December)

Event Time Altitude Azimuth Distance (km) Brightness Sun altitude
Rises 17:36:52 0° 308° (NW) 2,359 0.5 -10.5°
Reaches altitude 10° 17:39:08 10° 320° (NW) 1,496 -0.7 -10.9°
Maximum altitude 17:42:08 29° 23° (NNE) 801 -2.7 -11.4°
Enters shadow 17:43:44 19° 68° (ENE) 1,053 -2.4 -11.7°
